Weather History for Sacramento, CA

Change the Weather History Date:

Sunday, January 6, 2013

  Actual Average Record
Temperature  
Mean Temperature 44 °F -  
Max Temperature 52 °F 52 °F 64 °F (1966)
Min Temperature 36 °F 38 °F 24 °F (1950)
Degree Days  
Heating Degree Days 21    
Cooling Degree Days 0    
Moisture  
Dew Point 40 °F    
Average Humidity 84    
Maximum Humidity 100    
Minimum Humidity 68    
Precipitation  
Precipitation 0.23 in 0.11 in 1.15 in (1993)
Month to date precipitation 0.78 0.68  
Year to date precipitation 0.78 0.68  
Since 1 July precipitation 12.07 7.30  
Sea Level Pressure  
Sea Level Pressure 30.15 in    
Wind  
Wind Speed 5 mph (North)    
Max Wind Speed 13 mph    
Max Gust Speed 15 mph    
Visibility 4 miles    
Events Fog , Rain    
T = Trace of Precipitation, MM = Missing Value Source: NWS Daily Summary

Daily Weather History Graph

Daily Weather History Graph

Search for Another Location

Airport:

Trip Planner

Search our weather history database for the weather conditions in past years. The results will help you decide how hot, cold, wet, or windy it might be!

Date:

Astronomy

Jan. 06, 2013 Rise Set
Actual Time 7:23 AM PST 5:00 PM PST
Civil Twilight 6:54 AM PST 5:29 PM PST
Nautical Twilight 6:21 AM PST 6:02 PM PST
Astronomical Twilight 5:49 AM PST 6:35 PM PST
Moon 1:45 AM PST (1/6) 12:30 PM PST (1/6)
Length of Visible Light 10h 35m
Length of Day
9h 36m
Waning Crescent, 32% of the Moon is Illuminated
Jan 6
Waning Crescent
Jan 11
New
Jan 18
First Quarter
Jan 26
Full
Feb 3
Last Quarter

Hourly Weather History & Observations

Time (PST) Temp. Windchill Dew Point Humidity Pressure Visibility Wind Dir Wind Speed Gust Speed Precip Events Conditions
12:00 AM 44.6 °F 39.7 °F 41.0 °F 87% 30.12 in 6.0 mi North 9.2 mph - 0.01 in Rain Light Rain
12:14 AM 44.6 °F 39.7 °F 41.0 °F 87% 30.12 in 5.0 mi North 9.2 mph - 0.02 in Rain Light Rain
12:53 AM 44.1 °F 38.1 °F 41.0 °F 89% 30.10 in 6.0 mi North 11.5 mph - 0.05 in Rain Light Rain
1:04 AM 44.6 °F 41.4 °F 41.0 °F 87% 30.11 in 7.0 mi North 5.8 mph - 0.00 in Rain Light Rain
1:38 AM 44.6 °F 41.4 °F 42.8 °F 93% 30.11 in 4.0 mi North 5.8 mph - 0.04 in Rain Light Rain
1:53 AM 44.6 °F 43.1 °F 42.8 °F 93% 30.11 in 4.0 mi North 3.5 mph - N/A Rain Light Rain
2:27 AM 44.6 °F - 42.8 °F 93% 30.11 in 4.0 mi Calm Calm - 0.05 in Rain Light Rain
2:53 AM 44.1 °F 40.1 °F 42.1 °F 93% 30.11 in 4.0 mi North 6.9 mph - 0.06 in Rain Light Rain
3:53 AM 44.6 °F 42.2 °F 42.8 °F 93% 30.12 in 4.0 mi WNW 4.6 mph - N/A Rain Light Rain
4:50 AM 44.6 °F 40.7 °F 42.8 °F 93% 30.12 in 3.0 mi North 6.9 mph - 0.01 in Rain Light Rain
4:53 AM 44.1 °F 40.1 °F 42.1 °F 93% 30.12 in 3.0 mi North 6.9 mph - 0.01 in Rain Light Rain
5:14 AM 44.6 °F 41.4 °F 42.8 °F 93% 30.11 in 4.0 mi North 5.8 mph - N/A Rain Light Rain
5:53 AM 44.1 °F 40.1 °F 42.1 °F 93% 30.13 in 3.0 mi NW 6.9 mph - 0.01 in   Overcast
6:04 AM 44.6 °F 40.2 °F 42.8 °F 93% 30.13 in 3.0 mi NNW 8.1 mph - N/A   Overcast
6:26 AM 44.6 °F 40.2 °F 42.8 °F 93% 30.14 in 3.0 mi NNW 8.1 mph - 0.01 in Rain Light Rain
6:53 AM 44.1 °F 38.6 °F 42.1 °F 93% 30.14 in 4.0 mi North 10.4 mph - 0.03 in Rain Light Rain
7:53 AM 44.1 °F 40.8 °F 42.1 °F 93% 30.16 in 3.0 mi NNE 5.8 mph - 0.00 in   Overcast
8:24 AM 44.6 °F 39.7 °F 42.8 °F 93% 30.16 in 2.5 mi North 9.2 mph - N/A   Overcast
8:42 AM 44.6 °F 39.7 °F 42.8 °F 93% 30.17 in 3.0 mi NNE 9.2 mph - N/A   Overcast
8:51 AM 44.6 °F 39.7 °F 42.8 °F 93% 30.17 in 2.5 mi NNE 9.2 mph - 0.00 in Rain Light Rain
8:53 AM 45.0 °F 40.1 °F 42.1 °F 90% 30.17 in 2.5 mi NNE 9.2 mph - 0.00 in Rain Light Rain
9:31 AM 46.4 °F 42.4 °F 42.8 °F 87% 30.19 in 4.0 mi North 8.1 mph - 0.00 in   Overcast
9:53 AM 46.0 °F 42.5 °F 43.0 °F 89% 30.20 in 4.0 mi NNE 6.9 mph - 0.00 in   Overcast
10:53 AM 48.9 °F - 44.1 °F 83% 30.19 in 6.0 mi North 6.9 mph - N/A   Haze
11:53 AM 51.1 °F - 43.0 °F 74% 30.17 in 9.0 mi Variable 4.6 mph - N/A   Scattered Clouds
12:53 PM 51.1 °F - 41.0 °F 68% 30.15 in 10.0 mi NNW 9.2 mph - N/A   Mostly Cloudy
1:08 PM 51.8 °F - 41.0 °F 67% 30.15 in 10.0 mi NNW 4.6 mph - N/A   Overcast
1:53 PM 48.9 °F - 44.1 °F 83% 30.16 in 5.0 mi WNW 5.8 mph - N/A   Haze
2:53 PM 50.0 °F - 43.0 °F 77% 30.15 in 9.0 mi Calm Calm - N/A   Overcast
3:53 PM 51.1 °F - 41.0 °F 68% 30.14 in 10.0 mi Calm Calm - N/A   Clear
4:53 PM 48.0 °F - 41.0 °F 77% 30.15 in 10.0 mi Calm Calm - N/A   Clear
5:53 PM 44.1 °F - 39.9 °F 85% 30.15 in 8.0 mi Calm Calm - N/A   Clear
6:32 PM 42.8 °F - 39.2 °F 87% 30.16 in 1.8 mi Calm Calm - N/A   Clear
6:40 PM 42.8 °F - 39.2 °F 87% 30.16 in 7.0 mi Calm Calm - N/A   Clear
6:53 PM 42.8 °F - 39.2 °F 87% 30.16 in 7.0 mi Calm Calm - N/A   Clear
6:58 PM 42.8 °F - 39.2 °F 87% 30.16 in 0.8 mi Calm Calm - N/A   Clear
7:09 PM 41.0 °F - 39.2 °F 93% 30.16 in 7.0 mi Calm Calm - N/A   Clear
7:53 PM 39.9 °F - 37.9 °F 93% 30.17 in 7.0 mi Calm Calm - N/A   Clear
8:00 PM 39.2 °F - 37.4 °F 93% 30.17 in 1.2 mi Calm Calm - N/A   Clear
8:08 PM 39.2 °F - 37.4 °F 93% 30.17 in 7.0 mi Calm Calm - N/A   Partly Cloudy
8:53 PM 37.9 °F - 36.0 °F 93% 30.19 in 7.0 mi Calm Calm - N/A   Clear
9:00 PM 39.2 °F - 37.4 °F 93% 30.19 in 0.5 mi Calm Calm - N/A Fog Fog
9:14 PM 37.4 °F - 37.4 °F 100% 30.18 in 1.0 mi Calm Calm - N/A   Clear
9:20 PM 39.2 °F - 37.4 °F 93% 30.17 in 0.2 mi Calm Calm - N/A Fog Fog
9:53 PM 37.9 °F - 36.0 °F 93% 30.17 in 1.0 mi Calm Calm - N/A   Clear
10:02 PM 37.4 °F 34.9 °F 35.6 °F 93% 30.16 in 2.0 mi East 3.5 mph - N/A   Clear
10:22 PM 37.4 °F - 37.4 °F 100% 30.16 in 0.8 mi Calm Calm - N/A   Clear
10:34 PM 37.4 °F - 35.6 °F 93% 30.17 in 0.2 mi Calm Calm - N/A Fog Fog
10:45 PM 37.4 °F - 37.4 °F 100% 30.17 in 0.5 mi Calm Calm - N/A Fog Fog
10:53 PM 36.0 °F - 35.1 °F 97% 30.17 in 1.8 mi Calm Calm - N/A   Clear
11:09 PM 37.4 °F - 35.6 °F 93% 30.17 in 0.5 mi Calm Calm - N/A Fog Fog
11:36 PM 37.4 °F - 35.6 °F 93% 30.17 in 2.0 mi Calm Calm - N/A   Clear
11:44 PM 37.4 °F - 35.6 °F 93% 30.17 in 1.8 mi Calm Calm - N/A   Clear
11:53 PM 37.0 °F - 35.1 °F 93% 30.17 in 1.5 mi Calm Calm - N/A   Clear